Regional Weather Roundup
Issued by NWS

Home | Current Version | Previous Version | Text Only | Print | Product List | Glossary On
Versions: 1 2 3 4 5 6 7 8 9 10 11 12 13 14 15 16 17 18 19 20 21 22 23 24 25 26 27 28 29 30 31 32 33 34 35 36 37 38 39 40 41 42 43 44 45 46 47 48 49 50
000
ASUS45 KPSR 010610
RWRAZ

ARIZONA REGIONAL HOURLY WEATHER ROUNDUP
NATIONAL WEATHER SERVICE PHOENIX AZ
1100 PM MST TUE SEP 30 2014

NOTE: FAIR INDICATES FEW OR NO CLOUDS BELOW 12,000 FEET WITH NO
SIGNIFICANT WEATHER AND/OR OBSTRUCTIONS TO VISIBILITY.

AZZ001>003-036-010700-
NORTHWEST ARIZONA

CITY           SKY/WX    TMP DP  RH WIND       PRES   REMARKS
BULLHEAD CITY  CLEAR     77  37  24 SE5       29.72R
KINGMAN        CLEAR     61  42  49 CALM      29.88R
6HR MIN TEMP:  60; 6HR MAX TEMP:  79;

$$

AZZ004>008-015-016-018-010700-
NORTH CENTRAL ARIZONA

CITY           SKY/WX    TMP DP  RH WIND       PRES   REMARKS
GRAND CANYON   PTCLDY    41  38  89 CALM      30.03S FOG
6HR MIN TEMP:  41; 6HR MAX TEMP:  65;

PRESCOTT       CLEAR     56  37  49 S7        29.97F
6HR MIN TEMP:  55; 6HR MAX TEMP:  74;

FLAGSTAFF      CLEAR     43  36  76 CALM      30.07F
6HR MIN TEMP:  43; 6HR MAX TEMP:  62;

PAYSON         CLEAR     55  41  58 CALM      30.00S
$$

AZZ009>014-017-010700-
NORTHEAST ARIZONA

CITY           SKY/WX    TMP DP  RH WIND       PRES   REMARKS
WINSLOW        CLEAR     59  42  53 SW13      29.94S
6HR MIN TEMP:  58; 6HR MAX TEMP:  76;

SAINT JOHNS    CLEAR     54  35  48 SW7       29.98F
6HR MIN TEMP:  54; 6HR MAX TEMP:  71;

WINDOW ROCK    CLEAR     44  36  73 CALM      30.02
6HR MIN TEMP:  44; 6HR MAX TEMP:  66;

SHOW LOW       CLEAR     50  32  50 S12       30.05S
$$

AZZ023-010700-
GREATER PHOENIX AREA

CITY           SKY/WX    TMP DP  RH WIND       PRES   REMARKS
PHOENIX        CLEAR     76  51  41 E8        29.75S
6HR MIN TEMP:  75; 6HR MAX TEMP:  88;

BUCKEYE          N/A     68  48  49 NE5       29.76S
LUKE AFB       CLEAR     71  56  60 N5        29.75S
6HR MIN TEMP:  71; 6HR MAX TEMP:  87;

DEER VALLEY    CLEAR     71  49  45 NE8       29.77S
6HR MIN TEMP:  70; 6HR MAX TEMP:  85;

SCOTTSDALE     CLEAR     73  50  44 NE3       29.79S
6HR MIN TEMP:  73; 6HR MAX TEMP:  86;

MESA-GATEWAY   CLEAR     66  57  72 E8        29.80S
$$

AZZ027-028-010700-
SOUTHWEST MARICOPA COUNTY AND PINAL COUNTY

CITY           SKY/WX    TMP DP  RH WIND       PRES   REMARKS
CASA GRANDE    CLEAR     70  45  40 CALM      29.79S
6HR MIN TEMP:  66; 6HR MAX TEMP:  86;

$$

AZZ503-504-507>509-010700-
SOUTHEAST ARIZONA

CITY           SKY/WX    TMP DP  RH WIND       PRES   REMARKS
TUCSON         CLEAR     70  39  32 S7        29.88S
6HR MIN TEMP:  69; 6HR MAX TEMP:  87;

DAVIS-MONTHAN  CLEAR     66  40  38 SE9       29.86S
6HR MIN TEMP:  66; 6HR MAX TEMP:  84;

NOGALES        CLEAR     59  44  57 CALM      29.95R
6HR MIN TEMP:  58; 6HR MAX TEMP:  79;

SIERRA VISTA   CLEAR     61  39  44 SE6       29.98S
DOUGLAS        CLEAR     59  44  57 SE5       29.95S
6HR MIN TEMP:  57; 6HR MAX TEMP:  83;

SAFFORD        CLEAR     61  35  37 CALM      29.86S
6HR MIN TEMP:  61; 6HR MAX TEMP:  83;

$$

AZZ020-021-025-026-031-010700-
SOUTHWEST ARIZONA

CITY           SKY/WX    TMP DP  RH WIND       PRES   REMARKS
YUMA           CLEAR     79  48  33 SE12      29.70F
6HR MIN TEMP:  78; 6HR MAX TEMP:  94;

$$

CAZ031-033-041-043-047-048-061-010700-
SOUTHERN CALIFORNIA

CITY           SKY/WX    TMP DP  RH WIND       PRES   REMARKS
DOWNTOWN L.A.  CLEAR     68  61  78 CALM      29.77S
6HR MIN TEMP:  68; 6HR MAX TEMP:  79;

L.A. AIRPORT   CLEAR     67  63  87 S6        29.77S
6HR MIN TEMP:  67; 6HR MAX TEMP:  72;

SAN DIEGO      PTCLDY    71  65  81 S5        29.80F
6HR MIN TEMP:  71; 6HR MAX TEMP:  77;

BURBANK        CLEAR     69  58  67 E3        29.78R
6HR MIN TEMP:  69; 6HR MAX TEMP:  84;

ONTARIO        CLEAR     70  53  54 CALM      29.79R
6HR MIN TEMP:  70; 6HR MAX TEMP:  88;

RIVERSIDE      CLEAR     71  55  56 CALM      29.79S
6HR MIN TEMP:  71; 6HR MAX TEMP:  87;

PALM SPRINGS   CLEAR     85  44  23 NW7       29.72S
6HR MIN TEMP:  81; 6HR MAX TEMP:  95;

EL CENTRO NAS  CLEAR     81  46  29 SW7       29.67F
6HR MIN TEMP:  79; 6HR MAX TEMP:  94;

IMPERIAL       CLEAR     81  48  31 SW8       29.67F
6HR MIN TEMP:  81; 6HR MAX TEMP:  93;

BLYTHE         CLEAR     77  39  25 SW3       29.69F
6HR MIN TEMP:  76; 6HR MAX TEMP:  91;

NEEDLES        CLEAR     80  36  20 SW9       29.72R
6HR MIN TEMP:  80; 6HR MAX TEMP:  93;

$$

NVZ020-UTZ003-010700-
SOUTHERN NEVADA-UTAH

CITY           SKY/WX    TMP DP  RH WIND       PRES   REMARKS
LAS VEGAS      CLEAR     74  34  23 S12       29.72F
6HR MIN TEMP:  74; 6HR MAX TEMP:  85;

SALT LAKE CITY MOCLDY    52  48  86 CALM      29.94S
6HR MIN TEMP:  51; 6HR MAX TEMP:  60; 6HR PCP: TRACE;

$$

NMZ009-TXZ055-010700-
NEW MEXICO-WEST TEXAS

CITY           SKY/WX    TMP DP  RH WIND       PRES   REMARKS
ALBUQUERQUE    CLEAR     60  33  36 CALM      29.96S
6HR MIN TEMP:  58; 6HR MAX TEMP:  75;

EL PASO        CLEAR     75  35  23 NW3       29.88S
6HR MIN TEMP:  73; 6HR MAX TEMP:  85;

$$


........................KEY........................
SKY/WX - SKY CONDITION/WEATHER
TMP    - TEMPERATURE IN FAHRENHEIT
DP     - DEW POINT IN FAHRENHEIT
RH     - RELATIVE HUMIDITY IN PERCENT
WIND   - DIRECTION AND SPEED IN MILES PER HOUR (MPH)
VRB    - VARIABLE WIND DIRECTION
PRES   - MEAN SEA LEVEL PRESSURE IN INCHES OF MERCURY
         F - FALLING PRESSURE   R - RISING PRESSURE
         S - STEADY PRESSURE
VSB    - VISIBILITY IN MILES
HX     - HEAT INDEX IN FAHRENHEIT
WCI    - WIND CHILL INDEX IN FAHRENHEIT
TC     - TEMPERATURE IN CELSIUS WHICH IS ALSO KNOWN AS
         TEMPERATURE IN CENTIGRADE
AFB    - AIR FORCE BASE
         LUKE AFB IS LUKE AIR FORCE BASE
         DAVIS-MONTHAN IS DAVIS-MONTHAN AIR FORCE BASE
NAS    - NAVAL AIR STATION
         EL CENTRO NAS IS EL CENTRO NAVAL AIR STATION
N/A    - NOT AVAILABLE


USA.gov is the U.S. government's official web portal to all federal, state and local government web resources and services.